User: anonymous   Login
Location: Unspecified
(0.0000°N, 0.0000°E)
Time: 14:43:25
(UTC+00:00)
Language:

E-STAR-II - Orbit

View from above orbital plane
View from above orbital plane
View from above satellite
View from above satellite

Ground track
Ground track

The orbit data is extracted from the following two-line orbital elements,

1 41459U 16025D   17206.07875616 +.00000702 +00000-0 +41941-4 0  9995
2 41459 098.1812 245.7750 0174782 162.8852 197.8371 15.03096175068260
Epoch (UTC): 25 July 2017 01:53:24
Eccentricity: 0.0174782
inclination: 98.1812°
perigee height: 436 km
apogee height: 678 km
right ascension of ascending node: 245.7750°
argument of perigee: 162.8852°
revolutions per day: 15.03096175
mean anomaly at epoch: 197.8371°
orbit number at epoch: 6826

The dashed part of the orbit path shows where the satellite is in the earth's shadow,  

DLR